Regional Weather Roundup
Issued by NWS Cleveland, OH

Home | Current Version | Previous Version | Graphics & Text | Print | Product List | Glossary On
Versions: 1 2 3 4 5 6 7 8 9 10 11 12 13 14 15 16 17 18 19 20 21 22 23 24 25 26 27 28 29 30 31 32 33 34 35 36 37 38 39 40 41 42 43 44 45 46 47 48 49 50
000
ASUS41 KCLE 211210
RWRCLE
OHIO REGIONAL WEATHER ROUNDUP
NATIONAL WEATHER SERVICE WILMINGTON, OH
800 AM EDT SUN SEP 21 2014

NOTE: "FAIR" INDICATES FEW OR NO CLOUDS BELOW 12,000 FEET WITH NO
SIGNIFICANT WEATHER AND/OR OBSTRUCTIONS TO VISIBILITY.

OHZ001>008-015>018-024>027-034-035-043-044-211300-
   NORTHWEST OHIO

CITY           SKY/WX    TMP DP  RH WIND       PRES   REMARKS
DEFIANCE       CLEAR    N/A N/A N/A VRB7G16   29.73R
FINDLAY        MOCLDY    70  66  87 W16       29.72R
TOLEDO EXPRESS CLEAR     64  59  83 W18       29.70R
TOLEDO METCALF PTCLDY    67  59  75 W14G28    29.70R
LIMA           MOCLDY    69  65  86 W16G24    29.75R
$$

OHZ009>014-019>023-028>033-038-089-211300-
   NORTHEAST OHIO

CITY           SKY/WX    TMP DP  RH WIND       PRES   REMARKS
CLE-HOPKINS    PTCLDY    69  65  86 SW13G22   29.69F
CLE-LAKEFRONT  MOCLDY    71  65  81 S17G26    29.65F
CUY CO. ARPT   LGT RAIN  70  68  94 SW12      29.69S
LORAIN-ELYRIA  PTCLDY    72  65  78 SW15      29.69F
ASHTABULA      LGT RAIN  67  64  90 S12       29.69F
AKRON-CANTON   LGT RAIN  70  63  78 SW16G23   29.75R
WOOSTER        CLOUDY    69  64  84 SW9       29.75R
MANSFIELD      MOCLDY    69  66  90 SW12      29.74S
YOUNGSTOWN     CLOUDY    66  64  94 SW9       29.74S
$$

OHZ042-051>053-060>062-070>072-077>081-211300-
  SOUTHWEST OHIO

CITY           SKY/WX    TMP DP  RH WIND       PRES   REMARKS
CINC-COVINGTON CLOUDY    72  66  81 W12       29.85R
CINC-LUNKEN    CLOUDY    72  66  81 W14       29.84R
HAMILTON       CLOUDY    71  67  87 W7        29.83R
DAYTON         MOCLDY    70  67  90 SW14      29.80S
WRIGHT-PAT AFB PTCLDY    70  67  89 SW14      29.79S
DAYTON GENERAL MOCLDY    70  66  87 SW10      29.81S
WILMINGTON     CLOUDY    68  64  87 SW8       29.82R
$$

OHZ036-037-039>041-045>050-054>059-063>069-073>076-082>088-211300-
  CENTRAL AND SOUTHEAST OHIO

CITY           SKY/WX    TMP DP  RH WIND       PRES   REMARKS
COLUMBUS       CLOUDY    72  64  76 SW8       29.78S
OSU AIRPORT    CLOUDY    70  65  84 SW7       29.78S
BOLTON FIELD   CLOUDY    68  66  94 SW10      29.80R
RICKENBACK AFB CLOUDY    68  64  86 SW6       29.79S
NEWARK         CLOUDY    70  64  81 SW8       29.79R
MARION         MOCLDY    70  65  84 SW10G21   29.74F
LANCASTER      CLOUDY    70  64  81 SW9       29.81R
ZANESVILLE     MOCLDY    69  62  78 SW8       29.80S
NEW PHILLY     MOCLDY    69  64  84 VRB6      29.78R
$$



USA.gov is the U.S. government's official web portal to all federal, state and local government web resources and services.